• Join FlightAware (Why Join?)
  • Login
  • US Flag GB Flag 
15:59 EDT


 

Airport Tracker/Info


-or-


 

Live Flight TrackerFlight Track Log ✈ SWA127 ✈ 18-Apr-2013 ✈ KHOU - KHRL

Flight Track Log - Related Links

Times and Time Zones

All times are in EDT time to prevent confusion due to time zone crossing. See the SWA127 flight status page for this flight to view local times or setup timezone preferences in your user account.

Time Position Orientation Groundspeed Altitude Reporting Facility
EDT Latitude Longitude Course Direction KTS MPH feet Rate Location/Type
12:06 29.6003 -95.2500 159° South 187 215 1,900  Level Houston Center
12:06 29.5906 -95.2486 173° South 195 224 2,600 2,520 Climbing Houston Center
12:07 29.5483 -95.2325 162° South 208 239 4,500 1,980 Climbing Houston Center
12:07 29.5361 -95.2319 178° South 211 243 4,700 2,400 Climbing Houston Center
12:08 29.4731 -95.2614 202° Southwest 243 280 7,700 2,940 Climbing Houston Center
12:09 29.4072 -95.2922 202° Southwest 252 290 10,800 2,640 Climbing Houston Center
12:10 29.3053 -95.3400 202° Southwest 324 373 13,200 2,700 Climbing Houston Center
12:11 29.2233 -95.3925 209° Southwest 333 383 16,400 2,820 Climbing Houston Center
12:12 29.1467 -95.4569 216° Southwest 340 391 19,100 2,160 Climbing Houston Center
12:14 29.0661 -95.5200 214° Southwest 348 400 21,000 2,160 Climbing Houston Center
12:15 28.9817 -95.5881 215° Southwest 365 420 23,700 2,460 Climbing Houston Center
12:16 28.9025 -95.6517 215° Southwest 353 406 26,100 1,980 Climbing Houston Center
12:17 28.8061 -95.7283 215° Southwest 351 404 27,900 1,440 Climbing Houston Center
12:18 28.7203 -95.7947 214° Southwest 366 421 29,100 1,080 Climbing Houston Center
12:19 28.6322 -95.8658 215° Southwest 381 438 30,200 1,140 Climbing Houston Center
12:20 28.5411 -95.9381 215° Southwest 394 453 31,500 1,500 Climbing Houston Center
12:21 28.4386 -96.0181 214° Southwest 398 458 33,400 1,560 Climbing Houston Center
12:22 28.3478 -96.0889 214° Southwest 395 455 34,800 1,200 Climbing Houston Center
12:23 28.2581 -96.1606 215° Southwest 393 452 36,000 540 Climbing Houston Center
12:24 28.1694 -96.2314 215° Southwest 390 449 36,000  Level Houston Center
12:25 28.0792 -96.2994 214° Southwest 389 448 36,000  Level Houston Center
12:26 27.9736 -96.3825 215° Southwest 385 443 36,000  Level Houston Center
12:27 27.8864 -96.4497 214° Southwest 383 441 36,000  Level Houston Center
12:28 27.7975 -96.5192 215° Southwest 386 444 36,000  Level Houston Center
12:29 27.7086 -96.5878 214° Southwest 386 444 36,000  Level Houston Center
12:30 27.6194 -96.6569 215° Southwest 388 447 36,000 -720 Level Houston Center
12:31 27.5303 -96.7267 215° Southwest 389 448 34,500 -2,760 Descending Houston Center
12:32 27.4203 -96.8114 214° Southwest 395 455 30,400 -3,480 Descending Houston Center
12:33 27.3222 -96.8844 214° Southwest 404 465 27,400 -2,280 Descending Houston Center
12:34 27.2342 -96.9517 214° Southwest 392 451 25,700 -1,380 Descending Houston Center
12:35 27.1519 -97.0081 211° Southwest 359 413 24,600 -1,380 Descending Houston Center
12:36 27.0733 -97.0639 212° Southwest 341 392 22,900 -2,040 Descending Houston Center
12:37 27.0125 -97.1078 213° Southwest 341 392 21,300 -2,160 Descending Houston Center
12:37 26.9933 -97.1211 212° Southwest 340 391 20,700 -2,520 Descending Houston Center
12:38 26.9422 -97.1575 212° Southwest 343 395 19,000 -2,400 Descending Houston Center
12:38 26.9119 -97.1783 212° Southwest 343 395 18,200 -2,520 Descending Houston Center
12:39 26.8581 -97.2164 212° Southwest 335 386 16,500 -2,940 Descending Houston Center
12:39 26.8150 -97.2458 211° Southwest 330 380 15,200 -2,220 Descending Houston Center
12:40 26.7861 -97.2683 215° Southwest 327 376 14,300 -2,160 Descending Houston Center
12:40 26.7400 -97.2989 211° Southwest 319 367 13,000 -2,280 Descending Houston Center
12:41 26.7094 -97.3189 210° Southwest 318 366 12,000 -2,280 Descending Houston Center
12:41 26.6664 -97.3508 214° Southwest 314 361 10,700 -1,680 Descending Houston Center
12:42 26.6219 -97.3825 212° Southwest 307 353 10,000 -1,260 Descending Houston Center
12:42 26.5925 -97.4014 210° Southwest 288 331 9,400 -1,680 Descending Houston Center
12:43 26.5572 -97.4264 212° Southwest 280 322 8,300 -1,860 Descending Houston Center
12:44 26.5319 -97.4536 224° Southwest 276 318 7,500 -2,160 Descending Houston Center
12:44 26.5094 -97.4892 235° Southwest 284 327 6,400 -1,680 Descending Houston Center
12:45 26.4814 -97.5286 232° Southwest 282 325 5,800 -1,320 Descending Houston Center
12:45 26.4603 -97.5589 232° Southwest 273 314 5,100 -1,260 Descending Houston Center
12:46 26.4361 -97.5919 231° Southwest 265 305 4,500 -1,140 Descending Houston Center
12:46 26.4144 -97.6211 230° Southwest 257 296 4,000 -420 Descending Houston Center
12:47 26.3939 -97.6511 233° Southwest 249 287 4,100  Climbing Houston Center
12:47 26.3781 -97.6728 231° Southwest 238 274 4,000 -420 Descending Houston Center
12:48 26.3525 -97.7086 231° Southwest 231 266 3,700 -900 Descending Houston Center
12:49 26.3131 -97.7633 231° Southwest 208 239 2,400 -840 Descending Houston Center
12:50 26.2664 -97.7406 156° South 190 219 2,000 -780 Descending Houston Center
12:51 26.2569 -97.6900 102° East 163 188 900 -960 Descending Houston Center
12:52 26.2317 -97.6628 136° Southeast 135 155 100 -780 Descending Houston Center